Location: Newark
(30.0333°N, 31.2167°E)
Time: 15:13:07
(UTC+00:00)

Tiros 1 despin weight - Pass Details

Date: 28 January 2020
Orbit: 594 x 642 km, 48.2° (Epoch: 24 February)

Event Time Altitude Azimuth Distance (km) Brightness Sun altitude
Rises 07:05:53 0° 232° (SW) 2,822 ? 24.7°
Reaches altitude 10° 07:08:09 10° 233° (SW) 1,927 ? 25.1°
Maximum altitude 07:12:34 75° 319° (NW) 625 ? 25.8°
Drops below altitude 10° 07:17:04 10° 45° (NE) 1,960 ? 26.5°
Sets 07:19:24 0° 47° (NE) 2,875 ? 26.9°
